Location: Appeville
(49.3218°N, 1.3427°W)
Time: 09:20:54
(UTC+00:00)

Cosmos 1869 Rocket - Pass Details

Date: 08 December 2019
Orbit: 605 x 633 km, 82.5° (Epoch: 29 January)

Event Time Altitude Azimuth Distance (km) Brightness Sun altitude
Rises 05:37:20 0° 180° (S) 2,849 7.1 -20.1°
Reaches altitude 10° 05:39:32 10° 177° (S) 1,951 6.3 -19.8°
Maximum altitude 05:43:49 65° 96° (E) 674 3.9 -19.1°
Drops below altitude 10° 05:48:08 10° 15° (NNE) 1,975 6.2 -18.4°
Sets 05:50:23 0° 13° (NNE) 2,888 7.0 -18.1°
